www.pogodaiklimat.ru

Погода и климат >> Архив погоды >> Индонезия >> Аэропорт Дабо


ПОГОДА в Аэропорту Дабо

  • Прогноз погоды в Аэропорту Дабо
  • Монитор погоды в Аэропорту Дабо

АРХИВ ПОГОДЫ в Аэропорту Дабо

Время (UTC), дата Ветер
(напр.,м/с)
 
Видим.   Явления Облачность Т
(С)
Тd
(С)
f
(%)
Тe
(С)
Тes
(С)
Комфортность P
(гПа)
Po
(гПа)
Тmin
(С)
Tmax
(С)
R
(мм)
R24
(мм)
S
(см)
06 16.09 Ю 5 6000 м дым 9/4 500 м
[Cu med, cong As trans Cs]
+30.8 +24.3 68 +43 +47 опасность
перегрева
1009.4 1005.9
09 16.09 В 2 6000 м дым 9/4 500 м
[Cu med, cong As trans Cs]
+30.0 +23.7 69 +41 +43 опасность
перегрева
1007.9 1004.4
12 16.09 В 2 5000 м дым 9/4 500 м
[Cu med, cong As trans Cs]
+26.6 +23.1 81 +36 +36 очень
душно
1008.6 1005.0 +31.8
15 16.09 штиль 0 6000 м дым 9/4 500 м
[Cu med, cong As trans Cs]
+24.7 +23.8 95 +34 +34 очень
душно
1009.7 1006.2
18 16.09 В 5 9000 м 9/4 500 м
[Cu med, cong As trans Cs]
+25.3 +23.1 88 +34 +34 очень
душно
1009.6 1006.1
21 16.09 ЮВ 3 9000 м 9/4 500 м
[Cu med, cong As trans Cs]
+26.4 +24.1 87 +37 +37 очень
душно
1009.3 1005.8
00 17.09 ЮВ 2 5000 м дым 9/4 500 м
[Cu med, cong As trans Cs]
+26.9 +24.9 89 +39 +39 очень
душно
1010.8 1007.3 +22.0
03 17.09 Ю 3 4000 м дым 9/4 500 м
[Cu med, cong As trans Cs]
+30.6 +25.1 73 +44 +49 опасность
перегрева
1012.0 1008.9
06 17.09 ЮВ 4 3000 м дым 9/4 500 м
[Cu med, cong Cs]
+31.9 +24.8 66 +45 +52 опасность
перегрева
1010.1 1006.6
09 17.09 ЮВ 3 2500 м дым 9/4 500 м
[Cb calv Cs]
+30.6 +24.5 70 +43 +46 опасность
перегрева
1008.4 1004.9
12 17.09 ЮВ 2 2500 м дым 9/4 500 м
[Cb calv Cs]
+27.8 +24.7 83 +39 +39 очень
душно
1010.1 1006.6 +31.9
15 17.09 ЮВ 3 2500 м дым 9/4 500 м
[Cb calv Cs]
+27.4 +24.7 85 +39 +39 очень
душно
1011.2 1007.6
18 17.09 ЮВ 3 2500 м дым 9/4 500 м
[Cb calv Cs]
+27.7 +25.0 85 +40 +40 очень
душно
1010.7 1007.1
21 17.09 ЮВ 3 2500 м дым 9/4 500 м
[Cb calv As trans Cs]
+27.4 +25.3 88 +40 +40 очень
душно
1010.5 1006.9
00 18.09 ЮВ 3 2000 м дым 9/4 500 м
[Cb calv As trans Cs]
+27.6 +24.9 85 +39 +40 очень
душно
1012.1 1008.5 +22.0
03 18.09 ЮВ 5 1000 м дым 9/4 500 м
[Cb calv As trans Cs]
+30.6 +24.7 71 +43 +46 опасность
перегрева
1012.5 1009.0
06 18.09 ЮВ 5 700 м дым 9/4 500 м
[Cb calv As trans Cs]
+31.8 +24.5 65 +44 +48 опасность
перегрева
1010.8 1007.3
09 18.09 ЮВ 4 700 м дым 9/4 500 м
[Cb calv As trans Cs]
+30.2 +24.2 70 +42 +43 опасность
перегрева
1009.2 1005.8
12 18.09 В 2 2000 м дым 9/4 500 м
[Cb calv As trans Cs]
+28.4 +25.3 83 +41 +41 опасность
перегрева
1010.4 1006.3 +31.8
15 18.09 В 4 3000 м дым 9/4 500 м
[Cb calv As trans Cs]
+27.8 +24.4 82 +39 +39 очень
душно
1011.6 1008.1
18 18.09 ЮВ 3 3000 м дым 9/4 500 м
[Cb calv As trans Cs]
+27.6 +24.6 84 +39 +39 очень
душно
1010.5 1007.0
21 18.09 ЮВ 3 3000 м дым 9/4 500 м
[Cb calv As trans Cs]
+27.1 +24.5 86 +38 +38 очень
душно
1010.2 1006.7
00 19.09 ЮВ 4 6000 м дым 9/4 500 м
[Cb calv As trans Cs]
+27.5 +23.6 79 +37 +38 очень
душно
1012.1 1008.6 +26.3
03 19.09 ЮВ 4 6000 м дым 9/4 500 м
[Cb calv As trans Cs]
+31.0 +23.9 66 +43 +47 опасность
перегрева
1013.1 1009.6
06 19.09 Ю 6 6000 м дым 9/4 500 м
[Cb calv As trans Cs]
+31.6 +22.8 60 +42 +45 опасность
перегрева
1010.5 1007.0
09 19.09 ЮВ 2 6000 м дым 9/4 500 м
[Cb calv As trans Cs]
+31.6 +24.2 65 +44 +46 опасность
перегрева
1009.0 1005.5
12 19.09 В 2 6000 м дым 9/4 500 м
[Cb calv As trans Cs]
+27.7 +23.8 79 +38 +38 очень
душно
1010.2 1006.7 +32.2
15 19.09 В 3 7000 м дым 9/4 500 м
[Cb calv As trans Cs]
+26.9 +24.8 88 +38 +38 очень
душно
1010.8 1007.4
18 19.09 В 3 7000 м дым 9/4 500 м
[Cb calv As trans Cs]
+27.0 +24.1 84 +37 +37 очень
душно
1009.9 1006.4
21 19.09 В 2 7000 м дым 9/4 500 м
[Cb calv As trans Cs]
+27.0 +23.8 83 +37 +37 очень
душно
1009.6 1006.1
00 20.09 В 2 8000 м дым 9/4 500 м
[Cb calv As trans Cs]
+28.0 +24.6 82 +40 +40 очень
душно
1011.8 1008.3 +25.8
03 20.09 Ю 6 8000 м дым 9/4 500 м
[Cb calv As trans Cs]
+31.1 +25.1 70 +45 +47 опасность
перегрева
1012.7 1009.2
06 20.09 ЮВ 4 8000 м дым 9/4 500 м
[Cb calv As trans Cs]
+32.2 +24.9 65 +45 +51 опасность
перегрева
1010.5 1007.0
09 20.09 ЮВ 2 8000 м дым 9/4 500 м
[Cb calv As trans Cs]
+30.4 +24.3 70 +42 +44 опасность
перегрева
1009.1 1005.6
12 20.09 В 2 8000 м дым 9/4 500 м
[Cb calv As trans Cs]
+27.5 +25.2 87 +40 +40 очень
душно
1010.2 1006.7 +32.4
15 20.09 СВ 3 8000 м дым 9/4 500 м
[Cb calv As trans Cs]
+26.2 +23.3 84 +35 +35 очень
душно
1010.7 1007.2
18 20.09 В 4 8000 м дым 9/4 500 м
[Cb calv As trans Cs]
+25.9 +23.7 88 +35 +35 очень
душно
1009.8 1006.3
21 20.09 ЮВ 2 8000 м дым 9/4 500 м
[Cb calv As trans Cs]
+26.4 +23.8 86 +36 +36 очень
душно
1009.4 1005.9
00 21.09 В 3 8000 м дым 9/4 500 м
[Cb calv As trans Cs]
+27.2 +24.0 83 +38 +38 очень
душно
1010.8 1007.3 +24.5
03 21.09 ЮВ 4 7000 м дым 9/3 500 м
[Cb calv As trans Cs]
+31.1 +23.4 64 +42 +46 опасность
перегрева
1011.7 1008.2
06 21.09 Ю 4 8000 м {туман} 5/3 500 м
[Cb calv As trans Cs]
+32.4 +20.4 49 +39 +48 очень
душно
1009.6 1006.1
09 21.09 Ю 5 7000 м 9/3 500 м
[Cu med, cong As trans Cs]
+30.6 +23.9 67 +42 +43 опасность
перегрева
1008.0 1004.5
12 21.09 В 2 7000 м 9/3 500 м
[Cu med, cong As trans Cs]
+27.1 +23.6 81 +37 +37 очень
душно
1009.2 1005.6 +33.2
15 21.09 В 3 7000 м 9/3 500 м
[Cu med, cong As trans Cs]
+25.4 +23.5 89 +34 +34 очень
душно
1010.7 1007.2
18 21.09 В 6 8000 м 9/3 500 м
[Cu med, cong As op Cs]
+25.5 +23.8 90 +35 +35 очень
душно
1010.2 1006.7
21 21.09 В 2 8000 м 9/3 500 м
[Cu med, cong As op Cs]
+25.1 +23.4 90 +34 +34 очень
душно
1009.7 1006.2
00 22.09 В 2 8000 м 9/3 500 м
[Cu med, cong As op Cs]
+26.1 +23.8 87 +36 +36 очень
душно
1011.4 1007.9 +22.0
03 22.09 ЮВ 4 5000 м дым 9/4 500 м
[Cu med, cong As trans Cs]
+30.8 +24.6 70 +44 +48 опасность
перегрева
1012.4 1008.9
06 22.09 В 4 3500 м дым 9/4 500 м
[Cu med, cong Cs]
+31.7 +24.0 64 +44 +50 опасность
перегрева
1010.0 1006.5
09 22.09 ЮВ 3 3000 м дым 9/3 500 м
[Cu med, cong Cs]
+30.5 +24.6 71 +43 +46 опасность
перегрева
1009.1 1005.6
12 22.09 В 2 3000 м дым 9/3 500 м
[Cu med, cong Cs]
+28.2 +23.1 74 +38 +38 очень
душно
1010.3 1006.8 +32.0
15 22.09 В 3 3000 м дым 9/4 500 м
[Cu med, cong As trans Cs]
+27.5 +25.1 87 +40 +40 очень
душно
1012.2 1008.6
18 22.09 ЮВ 2 3000 м дым 9/3 500 м
[Cu med, cong As trans Cs]
+27.4 +25.9 92 +41 +41 опасность
перегрева
1011.4 1007.8
21 22.09 ЮВ 2 3000 м дым 9/3 500 м
[Cu med, cong As trans Cs]
+27.5 +24.8 85 +39 +39 очень
душно
1010.7 1007.1
00 23.09 ЮВ 2 2000 м дым 9/4 500 м
[Cu med, cong As trans Cs]
+27.8 +25.0 85 +40 +41 очень
душно
1012.1 1008.5 +24.8
03 23.09 В 3 2000 м дым 9/4 500 м
[Cu med, cong As trans Cs]
+30.6 +25.3 73 +44 +50 опасность
перегрева
1012.5 1009.1

 

Местоположение метеостанции Аэропорт Дабо (Индонезия): широта -0.48 долгота 104.58 высота над уровнем моря 31 м.

В архиве по умолчанию представлена погода в Аэропорту Дабо за последнюю неделю. Архивные данные за месяц целиком и за предыдущие месяцы, начиная с января 2011 года, Вы можете получить, выбрав интересующий диапазон дат из раскрывающегося списка и нажав кнопку "Ввод!".


*Определитесь, кто Вы:
робот инопланетянин человек

Внимание! Время в таблицах - всемирное. Для получения местного времени необходимо прибавить поправку, которая равна 7 ч.

Смотрите также архив погоды в соседних городах и на ближайших метеорологических станциях:

Погода в Танджунгпинанге (Индонезия) (156 км)
Погода в Джамби (Индонезия) (164 км)
Погода в Аэропорту Ханга Надима (Индонезия) (185 км)
Погода в Сингапуре (Сингапур) (216 км)
Погода в Аэропорту Япура (Индонезия) (253 км)
Погода в Панкалпинанге (Индонезия) (255 км)
Погода в Аэропорту Сеная (Малайзия) (256 км)
Погода в Палембанге (Индонезия) (269 км)
Погода в Пеканбару (Индонезия) (364 км)
Погода в Малакке (Малайзия) (401 км)

Пояснения к столбцам:

Ветер - указаны скорость ветра в м/с - средняя за 10 мин, порывы в срок и между сроками (в фигурных скобках) и направление, откуда дует ветер: С - северный, СВ - северо-восточный, В - восточный, ЮВ - юго-восточный, Ю - южный, ЮЗ - юго-западный, З - западный, СЗ - северо-западный.
Видимость - горизонтальная дальность видимости в метрах или километрах. При видимости от 1 до 10 км при отсутствии осадков обычно наблюдается дымка, при ухудшении видимости до 1 км и менее - туман. В сухую погоду видимость может ухудшаться дымом, пылью или мглою.
Явления - указаны атмосферные явления, наблюдавшиеся в срок или в последний час перед сроком; фигурными скобками обозначены явления, наблюдавшиеся между сроками (за 1-3 часа до срока); квадратными скобками обозначены град или гололедные отложения с указанием их диаметра в мм.
Облачность - указаны через наклонную черту общая и нижняя облачность в баллах и высота нижней границы облаков в метрах; квадратными скобками обозначены формы облаков: Ci - перистые, Cs - перисто-слоистые, Cc - перисто-кучевые, Ac - высококучевые, As - высокослоистые, Sc - слоисто-кучевые, Ns - слоисто-дождевые, Cu - кучевые, Cb - кучево-дождевые. Подробнее классификацию облаков см. в Атласе облаков (PDF).
T - Температура воздуха - температура, измеренная на высоте 2 м над землей.
Td - Температура точки росы - температура, при понижении до которой содержащийся в воздухе водяной пар достигнет насыщения.
f - Относительная влажность воздуха - влажноcть воздуха, измеренная на высоте 2 м над землей.
Te - Эффективная температура - температура, которую ощущает одетый по сезону человек в тени. Характеристика душности погоды. При расчете учитывается влияние влажности воздуха и скорости ветра на теплоощущения человека.
Tes - Эффективная температура на солнце - температура, которую ощущает человек, с поправкой на солнечный нагрев. Характеристика знойности погоды. Зависит от высоты солнца над горизонтом, облачности и скорости ветра. Ночью, в пасмурную погоду, а также при ветре 12 м/с и более поправка равна нулю.
P - Атмосферное давление - приведенное к уровню моря атмосферное давление.
Po - Атмосферное давление - измеренное на уровне метеостанции атмосферное давление.
Tmin - Минимальная температура - минимум температуры воздуха на высоте 2 м над землей.
Tmax - Максимальная температура - максимум температуры воздуха на высоте 2 м над землей.
R - Количество осадков - Количество выпавших осадков за период времени, мм. При наведении курсора мыши на число - период времени, за который выпало указанное количество осадков.
R24 - Количество осадков - Количество выпавших осадков за 24 часа, мм.
S - Снежный покров - Высота снежного покрова, см. При наведении курсора мыши на число - состояние снежного покрова и степень покрытия местности в баллах.